DIAMOND BLUE

Last updated on Tue Apr 16 2024 00:03:32 GMT+0000 (Coordinated Universal Time)

1 42786U 17036X 24106.30007442 .05054678 23133-5 12769-2 0 9996 2 42786 97.0854 146.7730 0009019 228.7182 131.3336 16.28888926380086

Satellite not in orbit

DIAMOND BLUE